sat.trackr.live / text

‹ back to catalog

STARLINK-4344

NORAD 53072 · 2022-077AF

PAYLOAD ACTIVE UNKNOWN

§ Identity

Operator
Country
US
Launch date
2022-07-11
Launch site
AFWTR
Launch vehicle
Mass (kg)
RCS (m²)

Purposes: comms

External: N2YO · Heavens-Above · Gunter

§ Orbital elements

Epoch: 2026-09-19T17:48:56.030688Z

Period
93.91 min
Inclination
97.2850°
Eccentricity
0.0001647
Mean motion
15.33435714 rev/d
Perigee alt
464.4 km
Apogee alt
466.7 km
Semi-major
6,843.7 km
B*
-5.6071e-6
RAAN
78.4372°
Arg perigee
96.4637°
Mean anomaly
263.6793°
Rev number
23,023

§ Raw data

STARLINK-43441 53072U 22077AF  26262.74231517 -.00000256  00000+0 -56071-5 0  99912 53072  97.2850  78.4372 0001647  96.4637 263.6793 15.33435714230236

JSON: /api/v1/satellites/53072 · /tle

For live sub-satellite position, see the globe view (requires WebGL).

§ Visibility from observer

Set your observer location to see the next 7 days of passes ≥ 10°. The values pass through the URL so the page stays shareable.

No JS? Fill the form by hand. The geolocation button needs JavaScript.